VE3KSR Weather Reports


Display with metric or nautical units.
time (UTC)temp
F
wind
direction
speed
MPH
gust
MPH
rain 1hr
in
rain 24hr
in
rain mn
in
humidity
%
barometer
mb
20260902204232 0 0 0.0 0.0 0.00 0.00 0.00 82
20260902203728 0 0 0.0 0.0 0.00 0.00 0.00 80
20260902203229 0 0 0.0 0.0 0.00 0.00 0.00 79
20260902202728 0 0 0.0 0.0 0.00 0.00 0.00 78
20260902202228 0 0 0.0 0.0 0.00 0.00 0.00 78
20260902201728 0 0 0.0 0.0 0.00 0.00 0.00 77
20260902201228 0 0 0.0 0.0 0.00 0.00 0.00 77
20260902200728 0 0 0.0 0.0 0.00 0.00 0.00 76
20260902200228 0 0 0.0 0.0 0.00 0.00 0.00 78
20260902195729 0 0 0.0 0.0 0.00 0.00 0.00 76
20260902195228 0 0 0.0 0.0 0.00 0.00 0.00 76
20260902194730 0 0 0.0 0.0 0.00 0.00 0.00 76
20260902194229 0 0 0.0 0.0 0.00 0.00 0.00 78
20260902193728 0 0 0.0 0.0 0.00 0.00 0.00 78
20260902193228 0 0 0.0 0.0 0.00 0.00 0.00 81
20260902192729 -55 0 0.0 0.0 0.00 0.00 0.00 83
20260902192229 0 0 0.0 0.0 0.00 0.00 0.00 88
20260902191729 0 0 0.0 0.0 0.00 0.00 0.00 91
20260902191229 0 0 0.0 0.0 0.00 0.00 0.00 93
20260902190832 0 0 0.0 0.0 0.00 0.00 0.00 95
20260902190729 0 0 0.0 0.0 0.00 0.00 0.00 95
20260902190229 0 0 0.0 0.0 0.00 0.00 0.00 97
20260902185729 0 0 0.0 0.0 0.00 0.00 0.00 98
20260902185229 -55 198 13.0 17.0 0.00 0.00 0.00 98
20260902184729 0 212 12.0 16.0 0.00 0.00 0.00 98
20260902184230 0 0 0.0 0.0 0.00 0.00 0.00 97
20260902183732 0 0 0.0 0.0 0.00 0.00 0.00 97
20260902183230 0 0 0.0 0.0 0.00 0.00 0.00 97
20260902182730 0 0 0.0 0.0 0.00 0.00 0.00 97
20260902182230 0 0 0.0 0.0 0.00 0.00 0.00 97
20260902181730 0 0 0.0 0.0 0.00 0.00 0.00 97
20260902181229 0 0 0.0 0.0 0.00 0.00 0.00 97
20260902180729 0 238 2.0 9.0 0.00 0.00 0.00 97
20260902180231 0 238 0.0 0.0 0.00 0.00 0.00 96
20260902175729 0 0 0.0 0.0 0.00 0.00 0.00 96
20260902175229 0 231 2.0 10.0 0.00 0.00 0.00 97
20260902174729 0 0 0.0 0.0 0.00 0.00 0.00 97
20260902174229 0 0 0.0 0.0 0.00 0.00 0.00 97
20260902173729 0 273 0.0 4.0 0.00 0.00 0.00 97
20260902173229 0 0 0.0 0.0 0.00 0.00 0.00 97
20260902172731 0 235 3.0 11.0 0.00 0.00 0.00 97
20260902172230 0 0 0.0 0.0 0.00 0.00 0.00 98
20260902170730 0 197 14.0 17.0 0.00 0.00 0.00 98
20260902170229 0 0 0.0 0.0 0.00 0.00 0.00 98
20260902165729 0 0 0.0 0.0 0.00 0.00 0.00 99
20260902165229 0 242 1.0 8.0 0.00 0.00 0.00 99
20260902164729 0 0 0.0 0.0 0.00 0.00 0.00 100
20260902164318 0 0 0.0 0.0 0.00 0.00 0.00 100
20260902164229 0 0 0.0 0.0 0.00 0.00 0.00 100
20260902163730 0 0 0.0 0.0 0.00 0.00 0.00 100
20260902163229 0 0 0.0 0.0 0.00 0.00 0.00 100
20260902162821 0 0 0.0 0.0 0.00 0.00 0.00 100
20260902162730 0 0 0.0 0.0 0.00 0.00 0.00 100
20260902162229 0 0 0.0 0.0 0.00 0.00 0.00 100
20260902161729 0 0 0.0 0.0 0.00 0.00 0.00 100
20260902161229 0 0 0.0 0.0 0.00 0.00 0.00 100
20260902160917 0 242 1.0 8.0 0.00 0.00 0.00 100
20260902160730 0 242 1.0 8.0 0.00 0.00 0.00 100
20260902160230 0 242 0.0 3.0 0.00 0.00 0.00 100
20260902155733 0 0 0.0 0.0 0.00 0.00 0.00 100
20260902155229 0 0 0.0 0.0 0.00 0.00 0.00 100
20260902154729 0 245 2.0 11.0 0.00 0.00 0.00 100
20260902154230 0 0 0.0 0.0 0.00 0.00 0.00 100
20260902153729 0 0 0.0 0.0 0.00 0.00 0.00 100
20260902153319 0 0 0.0 0.0 0.00 0.00 0.00 100
20260902153232 0 0 0.0 0.0 0.00 0.00 0.00 100
20260902152729 -55 0 0.0 0.0 0.00 0.00 0.00 100
20260902152230 0 332 0.0 3.0 0.00 0.00 0.00 100
20260902151730 0 0 0.0 0.0 0.00 0.00 0.00 100
20260902151229 0 0 0.0 0.0 0.00 0.00 0.00 100
20260902150729 0 0 0.0 0.0 0.00 0.00 0.00 100
20260902150230 0 0 0.0 0.0 0.00 0.00 0.00 100
20260902145729 0 0 0.0 0.0 0.00 0.00 0.00 100
20260902145229 0 0 0.0 0.0 0.00 0.00 0.00 100
20260902144732 0 0 0.0 0.0 0.00 0.00 0.00 100
20260902144230 0 0 0.0 0.0 0.00 0.00 0.00 100
20260902143729 0 0 0.0 0.0 0.00 0.00 0.00 100
20260902143230 0 0 0.0 0.0 0.00 0.00 0.00 100
20260902142730 0 0 0.0 0.0 0.00 0.00 0.00 100
20260902142229 -55 0 0.0 0.0 0.00 0.00 0.00 100
20260902141731 0 0 0.0 0.0 0.00 0.00 0.00 100
20260902141229 0 0 0.0 0.0 0.00 0.00 0.00 100
20260902140729 0 0 0.0 0.0 0.00 0.00 0.00 100
20260902140229 0 0 0.0 0.0 0.00 0.00 0.00 100
20260902135730 0 0 0.0 0.0 0.00 0.00 0.00 100
20260902135230 0 0 0.0 0.0 0.00 0.00 0.00 100
20260902134729 0 0 0.0 0.0 0.00 0.00 0.00 100
20260902134238 0 0 0.0 0.0 0.00 0.00 0.00 100
20260902133733 -55 0 0.0 0.0 0.00 0.00 0.00 100
20260902133229 0 0 0.0 0.0 0.00 0.00 0.00 100
20260902132729 0 0 0.0 0.0 0.00 0.00 0.00 100
20260902132231 0 0 0.0 0.0 0.00 0.00 0.00 100
20260902131729 0 0 0.0 0.0 0.00 0.00 0.00 100
20260902131229 -55 0 0.0 0.0 0.00 0.00 0.00 100
20260902130731 0 0 0.0 0.0 0.00 0.00 0.00 100
20260902130230 0 0 0.0 0.0 0.00 0.00 0.00 100
20260902125729 0 0 0.0 0.0 0.00 0.00 0.00 100
20260902125231 0 0 0.0 0.0 0.00 0.00 0.00 100
20260902124729 0 0 0.0 0.0 0.00 0.00 0.00 100
20260902124230 0 0 0.0 0.0 0.00 0.00 0.00 100
20260902123731 0 0 0.0 0.0 0.00 0.00 0.00 100
20260902123231 0 0 0.0 0.0 0.00 0.00 0.00 100
20260902122730 0 0 0.0 0.0 0.00 0.00 0.00 100
20260902122230 0 0 0.0 0.0 0.00 0.00 0.00 100
20260902121730 0 0 0.0 0.0 0.00 0.00 0.00 100
20260902121230 0 0 0.0 0.0 0.00 0.00 0.00 100
20260902120729 0 0 0.0 0.0 0.00 0.00 0.00 100
20260902120229 0 0 0.0 0.0 0.00 0.00 0.00 100
20260902115729 0 0 0.0 0.0 0.00 0.00 0.00 100
20260902115230 0 0 0.0 0.0 0.00 0.00 0.00 100
20260902114729 0 0 0.0 0.0 0.00 0.00 0.00 100
20260902114230 0 0 0.0 0.0 0.00 0.00 0.00 100
20260902113730 0 0 0.0 0.0 0.00 0.00 0.00 100
20260902113230 0 0 0.0 0.0 0.00 0.00 0.00 100
20260902112731 0 0 0.0 0.0 0.00 0.00 0.00 100
20260902112229 0 0 0.0 0.0 0.00 0.00 0.00 100
20260902111729 0 0 0.0 0.0 0.00 0.00 0.00 100
20260902111232 0 0 0.0 0.0 0.00 0.00 0.00 100
20260902110730 -55 0 0.0 0.0 0.00 0.00 0.00 100
20260902110229 71 0 0.0 0.0 0.00 0.00 0.00 100
20260902105731 71 0 0.0 0.0 0.00 0.00 0.00 100
20260902105229 72 0 0.0 0.0 0.00 0.00 0.00 100
20260902104733 72 0 0.0 0.0 0.00 0.00 0.00 100
20260902104230 -55 0 0.0 0.0 0.00 0.00 0.00 100
20260902103731 0 0 0.0 0.0 0.00 0.00 0.00 100
20260902103230 0 0 0.0 0.0 0.00 0.00 0.00 100
20260902102734 0 0 0.0 0.0 0.00 0.00 0.00 100
20260902102230 0 0 0.0 0.0 0.00 0.00 0.00 100
20260902101730 0 0 0.0 0.0 0.00 0.00 0.00 100
20260902101230 0 0 0.0 0.0 0.00 0.00 0.00 100
20260902100730 0 0 0.0 0.0 0.00 0.00 0.00 100
20260902100230 0 0 0.0 0.0 0.00 0.00 0.00 100
20260902095730 0 0 0.0 0.0 0.00 0.00 0.00 100
20260902095231 0 0 0.0 0.0 0.00 0.00 0.00 100
20260902094730 0 0 0.0 0.0 0.00 0.00 0.00 100
20260902094230 0 0 0.0 0.0 0.00 0.00 0.00 100
20260902093730 0 0 0.0 0.0 0.00 0.00 0.00 100
20260902093231 0 0 0.0 0.0 0.00 0.00 0.00 100
20260902092730 0 0 0.0 0.0 0.00 0.00 0.00 100
20260902092230 0 0 0.0 0.0 0.00 0.00 0.00 100
20260902091730 0 0 0.0 0.0 0.00 0.00 0.00 100
20260902091231 0 0 0.0 0.0 0.00 0.00 0.00 100
20260902090730 0 0 0.0 0.0 0.00 0.00 0.00 100
20260902090230 0 0 0.0 0.0 0.00 0.00 0.00 100
20260902085730 0 0 0.0 0.0 0.00 0.00 0.00 100
20260902085230 0 0 0.0 0.0 0.00 0.00 0.00 100
20260902084732 0 0 0.0 0.0 0.00 0.00 0.00 100
20260902084230 0 0 0.0 0.0 0.00 0.00 0.00 100
20260902083730 0 0 0.0 0.0 0.00 0.00 0.00 100
20260902083230 0 0 0.0 0.0 0.00 0.00 0.00 100
20260902082730 0 0 0.0 0.0 0.00 0.00 0.00 100
20260902082230 0 0 0.0 0.0 0.00 0.00 0.00 100
20260902081731 0 0 0.0 0.0 0.00 0.00 0.00 100
20260902081230 0 0 0.0 0.0 0.00 0.00 0.00 100
20260902080730 0 0 0.0 0.0 0.00 0.00 0.00 100
20260902080230 71 0 0.0 0.0 0.00 0.00 0.00 100
20260902075730 71 0 0.0 0.0 0.00 0.00 0.00 100
20260902075230 0 0 0.0 0.0 0.00 0.00 0.00 100
20260902074730 72 0 0.0 0.0 0.00 0.00 0.00 100
20260902074230 0 0 0.0 0.0 0.00 0.00 0.00 100
20260902073730 0 0 0.0 0.0 0.00 0.00 0.00 100
20260902073231 0 0 0.0 0.0 0.00 0.00 0.00 100
20260902072730 0 0 0.0 0.0 0.00 0.00 0.00 100
20260902072230 0 0 0.0 0.0 0.00 0.00 0.00 100
20260902071730 0 0 0.0 0.0 0.00 0.00 0.00 100
20260902071230 0 0 0.0 0.0 0.00 0.00 0.00 100
20260902070730 0 0 0.0 0.0 0.00 0.00 0.00 100
20260902070232 0 0 0.0 0.0 0.00 0.00 0.00 100
20260902065733 0 0 0.0 0.0 0.00 0.00 0.00 100
20260902065230 0 0 0.0 0.0 0.00 0.00 0.00 100
20260902064731 0 0 0.0 0.0 0.00 0.00 0.00 100
20260902064230 0 0 0.0 0.0 0.00 0.00 0.00 100
20260902063730 0 0 0.0 0.0 0.00 0.00 0.00 100
20260902063230 0 0 0.0 0.0 0.00 0.00 0.00 100
20260902062731 0 0 0.0 0.0 0.00 0.00 0.00 100
20260902062230 0 0 0.0 0.0 0.00 0.00 0.00 100
20260902061730 0 0 0.0 0.0 0.00 0.00 0.00 100
20260902061232 0 0 0.0 0.0 0.00 0.00 0.00 100
20260902060730 0 0 0.0 0.0 0.00 0.00 0.00 100
20260902060230 0 0 0.0 0.0 0.00 0.00 0.00 100
20260902055730 0 0 0.0 0.0 0.00 0.00 0.00 100
20260902055230 0 0 0.0 0.0 0.00 0.00 0.00 100
20260902054730 0 0 0.0 0.0 0.00 0.00 0.00 100
20260902054230 0 0 0.0 0.0 0.00 0.00 0.00 100
20260902053731 0 0 0.0 0.0 0.00 0.00 0.00 100
20260902053230 0 0 0.0 0.0 0.00 0.00 0.00 100
20260902052730 0 0 0.0 0.0 0.00 0.00 0.00 100
20260902052231 0 0 0.0 0.0 0.00 0.00 0.00 100
20260902051731 0 0 0.0 0.0 0.00 0.00 0.00 100
20260902051230 0 0 0.0 0.0 0.00 0.00 0.00 100
20260902050730 0 0 0.0 0.0 0.00 0.00 0.00 100
20260902050230 0 0 0.0 0.0 0.00 0.00 0.00 99
20260902045730 0 0 0.0 0.0 0.00 0.00 0.00 99
20260902045230 0 0 0.0 0.0 0.00 0.00 0.00 98
20260902044730 0 0 0.0 0.0 0.00 0.00 0.00 99
20260902044230 0 0 0.0 0.0 0.00 0.00 0.00 100
20260902043731 0 0 0.0 0.0 0.00 0.00 0.00 100
20260902043231 0 0 0.0 0.0 0.00 0.00 0.00 100
20260902042730 0 0 0.0 0.0 0.00 0.00 0.00 100
20260902042230 0 0 0.0 0.0 0.00 0.00 0.00 100
20260902041730 0 0 0.0 0.0 0.00 0.00 0.00 100
20260902041230 0 0 0.0 0.0 0.00 0.00 0.00 100
20260902040730 0 0 0.0 0.0 0.00 0.00 0.00 100
20260902040230 0 0 0.0 0.0 0.00 0.00 0.00 100
20260902035731 0 0 0.0 0.0 0.00 0.00 0.00 100
20260902035231 0 0 0.0 0.0 0.00 0.00 0.00 100
20260902034731 0 0 0.0 0.0 0.00 0.00 0.00 100
20260902034230 0 0 0.0 0.0 0.00 0.00 0.00 99
20260902033730 0 0 0.0 0.0 0.00 0.00 0.00 99
20260902033230 0 0 0.0 0.0 0.00 0.00 0.00 99
20260902032730 0 0 0.0 0.0 0.00 0.00 0.00 99
20260902032231 0 0 0.0 0.0 0.00 0.00 0.00 99
20260902031730 0 0 0.0 0.0 0.00 0.00 0.00 98
20260902031231 0 0 0.0 0.0 0.00 0.00 0.00 98
20260902030730 76 0 0.0 0.0 0.00 0.00 0.00 98
20260902030230 76 0 0.0 0.0 0.00 0.00 0.00 97
20260902025730 76 0 0.0 0.0 0.00 0.00 0.00 97
20260902025230 76 0 0.0 0.0 0.00 0.00 0.00 97
20260902024730 0 0 0.0 0.0 0.00 0.00 0.00 97
20260902024230 76 0 0.0 0.0 0.00 0.00 0.00 97
20260902023731 76 0 0.0 0.0 0.00 0.00 0.00 96
20260902023230 76 0 0.0 0.0 0.00 0.00 0.00 96
20260902022730 0 0 0.0 0.0 0.00 0.00 0.00 96
20260902022230 0 0 0.0 0.0 0.00 0.00 0.00 95
20260902021731 0 0 0.0 0.0 0.00 0.00 0.00 95
20260902021231 77 0 0.0 0.0 0.00 0.00 0.00 95
20260902020730 0 0 0.0 0.0 0.00 0.00 0.00 94
20260902020231 77 0 0.0 0.0 0.00 0.00 0.00 94
20260902015731 0 0 0.0 0.0 0.00 0.00 0.00 93
20260902015230 0 0 0.0 0.0 0.00 0.00 0.00 93
20260902014731 0 0 0.0 0.0 0.00 0.00 0.00 92
20260902014230 0 0 0.0 0.0 0.00 0.00 0.00 92
20260902013731 0 0 0.0 0.0 0.00 0.00 0.00 91
20260902013231 0 0 0.0 0.0 0.00 0.00 0.00 91
20260902012731 0 0 0.0 0.0 0.00 0.00 0.00 90
20260902012231 0 0 0.0 0.0 0.00 0.00 0.00 89
20260902011731 0 0 0.0 0.0 0.00 0.00 0.00 88
20260902011232 0 0 0.0 0.0 0.00 0.00 0.00 88
20260902010731 0 0 0.0 0.0 0.00 0.00 0.00 88
20260902010231 0 0 0.0 0.0 0.00 0.00 0.00 88
20260902005731 0 0 0.0 0.0 0.00 0.00 0.00 87
20260902005231 0 0 0.0 0.0 0.00 0.00 0.00 87
20260902004732 0 0 0.0 0.0 0.00 0.00 0.00 86
20260902004231 0 0 0.0 0.0 0.00 0.00 0.00 85
20260902003731 0 0 0.0 0.0 0.00 0.00 0.00 85
20260902003231 0 0 0.0 0.0 0.00 0.00 0.00 84
20260902002731 0 0 0.0 0.0 0.00 0.00 0.00 84
20260902002231 0 0 0.0 0.0 0.00 0.00 0.00 84
20260902001731 0 0 0.0 0.0 0.00 0.00 0.00 84
20260902001232 0 0 0.0 0.0 0.00 0.00 0.00 83
20260902000732 0 0 0.0 0.0 0.00 0.00 0.00 83
20260902000231 0 0 0.0 0.0 0.00 0.00 0.00 83
20260901235731 0 0 0.0 0.0 0.00 0.00 0.00 82
20260901235231 0 0 0.0 0.0 0.00 0.00 0.00 82
20260901234731 0 0 0.0 0.0 0.00 0.00 0.00 82
20260901234231 0 0 0.0 0.0 0.00 0.00 0.00 81
20260901233731 0 0 0.0 0.0 0.00 0.00 0.00 81
20260901233231 0 0 0.0 0.0 0.00 0.00 0.00 81
20260901232734 0 0 0.0 0.0 0.00 0.00 0.00 80
20260901232231 0 0 0.0 0.0 0.00 0.00 0.00 79
20260901231731 0 0 0.0 0.0 0.00 0.00 0.00 78
20260901231231 0 0 0.0 0.0 0.00 0.00 0.00 78
20260901230731 0 0 0.0 0.0 0.00 0.00 0.00 77
20260901230231 0 0 0.0 0.0 0.00 0.00 0.00 77
20260901225732 0 0 0.0 0.0 0.00 0.00 0.00 77
20260901225231 0 0 0.0 0.0 0.00 0.00 0.00 77
20260901224731 0 0 0.0 0.0 0.00 0.00 0.00 78
20260901224233 0 0 0.0 0.0 0.00 0.00 0.00 77
20260901223731 0 0 0.0 0.0 0.00 0.00 0.00 76
20260901223231 0 0 0.0 0.0 0.00 0.00 0.00 75
20260901222734 0 0 0.0 0.0 0.00 0.00 0.00 74
20260901222231 0 0 0.0 0.0 0.00 0.00 0.00 73
20260901221732 0 0 0.0 0.0 0.00 0.00 0.00 73
20260901221231 0 0 0.0 0.0 0.00 0.00 0.00 74
20260901220731 0 0 0.0 0.0 0.00 0.00 0.00 73
20260901220232 0 0 0.0 0.0 0.00 0.00 0.00 73
20260901215732 0 0 0.0 0.0 0.00 0.00 0.00 73
20260901215232 0 0 0.0 0.0 0.00 0.00 0.00 74
20260901214732 0 0 0.0 0.0 0.00 0.00 0.00 74
20260901214232 0 0 0.0 0.0 0.00 0.00 0.00 75
20260901213733 0 0 0.0 0.0 0.00 0.00 0.00 74
20260901213231 0 0 0.0 0.0 0.00 0.00 0.00 73
20260901212731 0 0 0.0 0.0 0.00 0.00 0.00 74
20260901212231 0 0 0.0 0.0 0.00 0.00 0.00 74
20260901211732 0 0 0.0 0.0 0.00 0.00 0.00 73
20260901211232 0 0 0.0 0.0 0.00 0.00 0.00 73
20260901210734 80 0 0.0 0.0 0.00 0.00 0.00 75
20260901210232 0 0 0.0 0.0 0.00 0.00 0.00 74
20260901205732 0 0 0.0 0.0 0.00 0.00 0.00 72
20260901205231 0 0 0.0 0.0 0.00 0.00 0.00 71
20260901204732 0 0 0.0 0.0 0.00 0.00 0.00 73